Weather History for Wilmington, NC

Change the Weather History Date:

Friday, March 29, 2013

  Actual Average Record
Temperature  
Mean Temperature 47 °F 58 °F  
Max Temperature 62 °F 70 °F 92 °F (1907)
Min Temperature 32 °F 47 °F 31 °F (2011)
Degree Days  
Heating Degree Days 18 7  
Month to date heating degree days 455 308  
Since 1 July heating degree days 2262 2237  
Cooling Degree Days 0 1  
Month to date cooling degree days 2 14  
Year to date cooling degree days 14 19  
Moisture  
Dew Point 30 °F    
Average Humidity 55    
Maximum Humidity 85    
Minimum Humidity 25    
Precipitation  
Precipitation 0.00 in 0.13 in 2.66 in (1990)
Month to date precipitation 2.36 3.96  
Year to date precipitation 9.63 11.34  
Snow  
Snow 0.00 in 0.00 in - ()
Month to date snowfall 0.0 0.2  
Since 1 July snowfall T 1.7  
Snow Depth 0.00 in    
Sea Level Pressure  
Sea Level Pressure 30.27 in    
Wind  
Wind Speed 6 mph (West)    
Max Wind Speed 18 mph    
Max Gust Speed 22 mph    
Visibility 10 miles    
Events      
T = Trace of Precipitation, MM = Missing Value Source: NWS Daily Summary

Daily Weather History Graph

Daily Weather History Graph

Search for Another Location

Airport:

Trip Planner

Search our weather history database for the weather conditions in past years. The results will help you decide how hot, cold, wet, or windy it might be!

Date:

Astronomy

Mar. 29, 2013 Rise Set
Actual Time 7:02 AM EDT 7:30 PM EDT
Civil Twilight 6:37 AM EDT 7:55 PM EDT
Nautical Twilight 6:07 AM EDT 8:25 PM EDT
Astronomical Twilight 5:37 AM EDT 8:55 PM EDT
Moon 10:19 PM EDT (3/29) 8:17 AM EDT (3/29)
Length of Visible Light 13h 18m
Length of Day
12h 27m
Waning Gibbous, 93% of the Moon is Illuminated
Mar 29
Waning Gibbous
Apr 3
Last Quarter
Apr 10
New
Apr 18
First Quarter
Apr 25
Full

Hourly Weather History & Observations

Time (EDT) Temp. Windchill Dew Point Humidity Pressure Visibility Wind Dir Wind Speed Gust Speed Precip Events Conditions
12:53 AM 39.9 °F 36.7 °F 30.9 °F 70% 30.28 in 10.0 mi NW 4.6 mph - N/A   Clear
1:53 AM 43.0 °F 38.8 °F 28.0 °F 56% 30.28 in 10.0 mi North 6.9 mph - N/A   Clear
2:53 AM 41.0 °F 36.4 °F 27.0 °F 57% 30.28 in 10.0 mi North 6.9 mph - N/A   Clear
3:53 AM 37.9 °F 34.4 °F 26.1 °F 62% 30.28 in 10.0 mi North 4.6 mph - N/A   Clear
4:53 AM 36.0 °F - 28.9 °F 76% 30.29 in 10.0 mi Calm Calm - N/A   Clear
5:53 AM 34.0 °F - 28.0 °F 79% 30.30 in 10.0 mi Calm Calm - N/A   Clear
6:53 AM 32.0 °F - 28.0 °F 85% 30.31 in 10.0 mi Calm Calm - N/A   Clear
7:53 AM 36.0 °F - 30.9 °F 82% 30.33 in 10.0 mi Calm Calm - N/A   Clear
8:53 AM 46.0 °F 44.8 °F 30.0 °F 54% 30.34 in 10.0 mi North 3.5 mph - N/A   Clear
9:53 AM 51.1 °F - 26.1 °F 38% 30.35 in 10.0 mi NNE 5.8 mph - N/A   Clear
10:53 AM 53.1 °F - 24.1 °F 32% 30.33 in 10.0 mi NNE 4.6 mph - N/A   Clear
11:53 AM 55.9 °F - 26.1 °F 32% 30.32 in 10.0 mi NW 10.4 mph - 0.00 in   Clear
12:53 PM 57.0 °F - 24.1 °F 28% 30.29 in 10.0 mi Variable 5.8 mph 16.1 mph N/A   Clear
1:53 PM 59.0 °F - 25.0 °F 27% 30.27 in 10.0 mi West 10.4 mph - N/A   Clear
2:53 PM 61.0 °F - 25.0 °F 25% 30.25 in 10.0 mi NW 9.2 mph 17.3 mph N/A   Clear
3:53 PM 57.9 °F - 30.9 °F 36% 30.22 in 10.0 mi Variable 5.8 mph 17.3 mph N/A   Clear
4:53 PM 57.9 °F - 32.0 °F 37% 30.20 in 10.0 mi South 10.4 mph - N/A   Clear
5:53 PM 55.9 °F - 32.0 °F 40% 30.21 in 10.0 mi South 13.8 mph - N/A   Clear
6:53 PM 54.0 °F - 33.1 °F 45% 30.22 in 10.0 mi South 12.7 mph - N/A   Clear
7:53 PM 52.0 °F - 33.1 °F 49% 30.23 in 10.0 mi SSW 10.4 mph - N/A   Clear
8:53 PM 50.0 °F - 35.1 °F 57% 30.24 in 10.0 mi SSW 6.9 mph - N/A   Clear
9:53 PM 48.9 °F - 36.0 °F 61% 30.25 in 10.0 mi SSW 6.9 mph - N/A   Clear
10:53 PM 48.9 °F - 37.9 °F 66% 30.25 in 10.0 mi SSW 5.8 mph - N/A   Clear
11:53 PM 48.9 °F - 39.9 °F 71% 30.25 in 10.0 mi SW 5.8 mph - N/A   Partly Cloudy